Home > Time Zones > World Clock > Weather > Chad > Sarh > Past weeks

Flag for Chad Weather past 2 weeks in Sarh, Chad

Now
79 °F

Thunderstorms. Passing clouds.


Feels Like: 82 °F
Forecast: 74 / 90 °F
Wind: 3 mph from Northwest

Location: Sarh Airport

Current Time: Sep 3, 2015 at 11:00:07 PM

Latest Report: Sep 3, 2015 at 10:00 PM


Visibility: N/A

Pressure: 29.92 "Hg

Humidity: 89%

Dew point: 75 °F

Location of SarhLocation

Historic Weather in Sarh — Graph

°F

Sarh temperature yesterday

Maximum temperature yesterday: 90 °F (at 1:00 PM)
Minimum temperature yesterday: 73 °F (at 4:00 AM)
Average temperature yesterday: 78 °F

Past Weeks' High & Low Weather Summary

 TemperatureHumidityPressure
High93 °F (Aug 20, 1:00 PM)100% (Aug 26, 8:00 AM)30.04 "Hg (Aug 26, 8:00 AM)
Low68 °F (Aug 26, 8:00 AM)49% (Aug 20, 1:00 PM)29.77 "Hg (Aug 22, 8:00 PM)
Average79 °F82%29.92 "Hg
* Reported Aug 19 9:00 PM — Sep 3 9:00 PM, Sarh, Weather by CustomWeather, © 2015

Note: Actual official high and low records may vary slightly from our data, if they occured in-between our weather recording intervals... More about our weather records

Advertising

Sarh weather history for previous 24 hours

 ConditionsComfort  
Time TempWeatherWind HumidityBarometerVisibility
9:00 PM
Thu, Sep 3
79 °FThunderstorms. Passing clouds.3 mph89%29.92 "HgN/A
8:00 PM81 °FThunderstorms. Passing clouds.3 mph89%29.89 "HgN/A
7:00 PM81 °FThunderstorms. Passing clouds.No wind84%29.86 "HgN/A
6:00 PM82 °FPassing clouds.5 mph79%29.86 "HgN/A
5:00 PM81 °FPassing clouds.5 mph74%29.86 "HgN/A
4:00 PM82 °FPassing clouds.7 mph66%29.86 "HgN/A
11:00 AM84 °FPassing clouds.6 mph70%29.98 "HgN/A
10:00 AM82 °FPassing clouds.8 mph74%29.98 "HgN/A
9:00 AM81 °FPassing clouds.7 mph79%29.98 "HgN/A
8:00 AM79 °FPassing clouds.8 mph89%29.98 "HgN/A
7:00 AM75 °FPassing clouds.No wind94%29.98 "HgN/A
6:00 AM75 °FThunderstorms. Passing clouds.No wind89%29.98 "HgN/A
5:00 AM73 °FThunderstorms. Passing clouds.No wind94%29.98 "HgN/A
4:00 AM73 °FClear.No wind94%29.95 "Hg10 mi
3:00 AM73 °FClear.No wind94%29.95 "Hg10 mi
2:00 AM73 °FClear.No wind94%29.95 "Hg10 mi
12:00 AM72 °FClear.No wind88%30.01 "Hg10 mi
11:00 PM
Wed, Sep 2
73 °FClear.No wind94%29.98 "Hg10 mi
Weather by CustomWeather, © 2015

See weather overviewHow to use our weather pages